• In Moldova, Republic
  • List of Countries
  • For 7 days
  • Water Temperature
  • Satellite Maps
  • Weather Map
  • Weather Widgets
  • user-avatar
    Login

    Hourly Weather Annaba

    Today, 16 January, Monday

    Time Temperature Precipitation Wind Pressure Humidity
    00:00 +3°C° 1 mm 10 mps 759 mmHg 87%
    01:00 +3°C° 0 mm 10 mps 758 mmHg 89%
    02:00 +3°C° 0.9 mm 10 mps 758 mmHg 88%
    03:00 +3°C° 0.9 mm 10 mps 758 mmHg 88%
    04:00 +3°C° 0.9 mm 10 mps 758 mmHg 87%
    05:00 +3°C° 0.6 mm 10 mps 758 mmHg 87%
    06:00 +3°C° 0.6 mm 9 mps 758 mmHg 87%
    07:00 +4°C° 0 mm 8 mps 758 mmHg 87%
    08:00 +5°C° 0.3 mm 8 mps 758 mmHg 84%
    09:00 +6°C° 0.3 mm 8 mps 758 mmHg 82%
    10:00 +6°C° 0.3 mm 9 mps 758 mmHg 79%
    11:00 +7°C° 0.3 mm 9 mps 758 mmHg 76%
    12:00 +8°C° 0.3 mm 10 mps 758 mmHg 74%
    13:00 +8°C° 0.3 mm 10 mps 757 mmHg 71%
    14:00 +8°C° 0.4 mm 10 mps 757 mmHg 74%
    15:00 +8°C° 0.4 mm 10 mps 757 mmHg 77%
    16:00 +7°C° 0.4 mm 9 mps 756 mmHg 80%
    17:00 +7°C° 1.2 mm 9 mps 756 mmHg 84%
    18:00 +6°C° 1.2 mm 8 mps 755 mmHg 89%
    19:00 +5°C° 1.2 mm 7 mps 755 mmHg 94%
    20:00 +5°C° 1.9 mm 8 mps 755 mmHg 91%
    21:00 +6°C° 1.9 mm 8 mps 755 mmHg 89%
    22:00 +6°C° 1.9 mm 9 mps 754 mmHg 87%
    23:00 +5°C° 0.7 mm 9 mps 754 mmHg 86%

    Tomorrow, 17 January, Tuesday

    Time Temperature Precipitation Wind Pressure Humidity
    00:00 +5°C° 0.7 mm 10 mps 754 mmHg 85%
    01:00 +5°C° 0.7 mm 10 mps 754 mmHg 84%
    02:00 +3°C° 0.9 mm 9 mps 754 mmHg 85%
    03:00 +4°C° 0.9 mm 8 mps 754 mmHg 86%
    04:00 +2°C° 0.9 mm 8 mps 754 mmHg 86%
    05:00 +2°C° 0.9 mm 8 mps 754 mmHg 86%
    06:00 +2°C° 0.9 mm 8 mps 754 mmHg 85%
    07:00 +2°C° 0.9 mm 8 mps 754 mmHg 84%
    08:00 +4°C° 1 mm 8 mps 754 mmHg 83%
    09:00 +4°C° 1 mm 7 mps 754 mmHg 82%
    10:00 +4°C° 1 mm 7 mps 754 mmHg 80%
    11:00 +5°C° 0.9 mm 7 mps 754 mmHg 80%
    12:00 +5°C° 0.9 mm 7 mps 754 mmHg 80%
    13:00 +5°C° 0.9 mm 7 mps 754 mmHg 80%
    14:00 +5°C° 0.7 mm 8 mps 754 mmHg 80%
    15:00 +5°C° 0.7 mm 9 mps 754 mmHg 80%
    16:00 +5°C° 0.7 mm 10 mps 753 mmHg 79%
    17:00 +3°C° 0.8 mm 10 mps 754 mmHg 82%
    18:00 +3°C° 0.8 mm 10 mps 754 mmHg 84%
    19:00 +2°C° 0.8 mm 10 mps 754 mmHg 87%
    20:00 +2°C° 1.9 mm 9 mps 754 mmHg 88%
    21:00 +4°C° 1.9 mm 8 mps 754 mmHg 88%
    22:00 +4°C° 1.9 mm 8 mps 754 mmHg 89%
    23:00 +4°C° 1.4 mm 8 mps 754 mmHg 89%

    Day after tomorrow, 18 January, Wednesday

    Time Temperature Precipitation Wind Pressure Humidity
    00:00 +4°C° 1.4 mm 7 mps 755 mmHg 90%
    01:00 +4°C° 1.4 mm 7 mps 755 mmHg 90%
    02:00 +4°C° 0.9 mm 7 mps 755 mmHg 90%
    03:00 +4°C° 0.9 mm 7 mps 755 mmHg 90%
    04:00 +4°C° 0.9 mm 7 mps 755 mmHg 90%
    05:00 +4°C° 0.7 mm 7 mps 755 mmHg 91%
    06:00 +4°C° 0.7 mm 7 mps 755 mmHg 91%
    07:00 +4°C° 0.7 mm 7 mps 755 mmHg 91%
    08:00 +4°C° 0.6 mm 7 mps 756 mmHg 90%
    09:00 +5°C° 0.6 mm 7 mps 756 mmHg 88%
    10:00 +6°C° 0.6 mm 7 mps 757 mmHg 87%
    11:00 +6°C° 1 mm 7 mps 757 mmHg 88%
    12:00 +6°C° 1 mm 7 mps 757 mmHg 88%
    13:00 +8°C° 1 mm 6 mps 757 mmHg 89%
    14:00 +8°C° 0.6 mm 6 mps 757 mmHg 89%
    15:00 +8°C° 0.6 mm 6 mps 758 mmHg 88%
    16:00 +8°C° 0.6 mm 6 mps 758 mmHg 88%
    17:00 +8°C° 0.7 mm 5 mps 758 mmHg 90%
    18:00 +7°C° 0.7 mm 4 mps 759 mmHg 91%
    19:00 +7°C° 0.7 mm 4 mps 760 mmHg 92%
    20:00 +6°C° 0.8 mm 4 mps 760 mmHg 92%
    21:00 +6°C° 0.8 mm 4 mps 760 mmHg 92%
    22:00 +5°C° 0.8 mm 4 mps 761 mmHg 92%
    23:00 +5°C° 0.5 mm 4 mps 761 mmHg 91%

    19 January, Thursday

    Time Temperature Precipitation Wind Pressure Humidity
    00:00 +5°C° 0.5 mm 3 mps 761 mmHg 90%
    01:00 +5°C° 0.5 mm 3 mps 762 mmHg 90%
    02:00 +5°C° 0.3 mm 3 mps 762 mmHg 89%
    03:00 +4°C° 0.3 mm 3 mps 762 mmHg 88%
    04:00 +4°C° 0.3 mm 3 mps 762 mmHg 87%
    05:00 +4°C° 0.2 mm 3 mps 762 mmHg 87%
    06:00 +3°C° 0.2 mm 3 mps 762 mmHg 86%
    07:00 +4°C° 0.2 mm 2 mps 762 mmHg 86%
    08:00 +6°C° 0.1 mm 2 mps 762 mmHg 82%
    09:00 +8°C° 0.1 mm 2 mps 763 mmHg 79%
    10:00 +10°C° 0.1 mm 2 mps 763 mmHg 76%
    11:00 +11°C° 0.1 mm 3 mps 763 mmHg 73%
    12:00 +12°C° 0.1 mm 3 mps 762 mmHg 70%
    13:00 +13°C° 0.1 mm 3 mps 762 mmHg 68%
    14:00 +13°C° 0 mm 4 mps 762 mmHg 68%
    15:00 +13°C° 0 mm 4 mps 762 mmHg 69%
    16:00 +13°C° 0 mm 4 mps 761 mmHg 69%
    17:00 +10°C° 0 mm 5 mps 762 mmHg 74%
    18:00 +9°C° 0 mm 5 mps 762 mmHg 79%
    19:00 +7°C° 0 mm 5 mps 762 mmHg 84%
    20:00 +7°C° 0 mm 5 mps 762 mmHg 84%
    21:00 +7°C° 0 mm 5 mps 763 mmHg 85%
    22:00 +5°C° 0 mm 6 mps 763 mmHg 85%
    23:00 +5°C° 0 mm 6 mps 763 mmHg 86%

    20 January, Friday

    Time Temperature Precipitation Wind Pressure Humidity
    00:00 +5°C° 0 mm 6 mps 763 mmHg 86%
    01:00 +6°C° 0 mm 5 mps 762 mmHg 87%
    02:00 +4°C° 0 mm 6 mps 762 mmHg 87%
    03:00 +4°C° 0 mm 6 mps 762 mmHg 87%
    04:00 +4°C° 0 mm 6 mps 762 mmHg 87%
    05:00 +4°C° 0 mm 6 mps 762 mmHg 87%
    06:00 +4°C° 0 mm 6 mps 762 mmHg 87%
    07:00 +3°C° 0 mm 6 mps 761 mmHg 87%
    08:00 +5°C° 0 mm 6 mps 761 mmHg 83%
    09:00 +7°C° 0 mm 6 mps 761 mmHg 80%
    10:00 +9°C° 0 mm 6 mps 761 mmHg 76%
    11:00 +10°C° 0 mm 6 mps 761 mmHg 74%
    12:00 +11°C° 0 mm 6 mps 760 mmHg 73%
    13:00 +11°C° 0 mm 6 mps 759 mmHg 71%
    14:00 +11°C° 0.3 mm 6 mps 759 mmHg 74%
    15:00 +12°C° 0.3 mm 5 mps 758 mmHg 78%
    16:00 +12°C° 0.3 mm 5 mps 758 mmHg 82%
    17:00 +10°C° 2 mm 6 mps 757 mmHg 85%
    18:00 +9°C° 2 mm 7 mps 757 mmHg 88%
    19:00 +9°C° 2 mm 7 mps 757 mmHg 91%
    20:00 +8°C° 1.7 mm 7 mps 757 mmHg 91%
    21:00 +8°C° 1.7 mm 7 mps 756 mmHg 91%
    22:00 +7°C° 1.7 mm 6 mps 756 mmHg 91%
    23:00 +7°C° 0.3 mm 5 mps 756 mmHg 90%

    21 January, Saturday

    Time Temperature Precipitation Wind Pressure Humidity
    00:00 +7°C° 0.3 mm 4 mps 755 mmHg 89%
    01:00 +7°C° 0.3 mm 3 mps 755 mmHg 88%
    02:00 +7°C° 0.1 mm 3 mps 754 mmHg 86%
    03:00 +7°C° 0.1 mm 3 mps 754 mmHg 85%
    04:00 +7°C° 0.1 mm 3 mps 753 mmHg 83%
    05:00 +5°C° 0.1 mm 3 mps 753 mmHg 82%
    06:00 +5°C° 0.1 mm 3 mps 753 mmHg 82%
    07:00 +4°C° 0.1 mm 3 mps 753 mmHg 81%
    08:00 +7°C° 0.1 mm 3 mps 753 mmHg 77%
    09:00 +8°C° 0.1 mm 3 mps 753 mmHg 74%
    10:00 +10°C° 0.1 mm 3 mps 753 mmHg 71%
    11:00 +12°C° 0 mm 2 mps 753 mmHg 67%
    12:00 +12°C° 0 mm 2 mps 753 mmHg 63%
    13:00 +13°C° 0 mm 2 mps 752 mmHg 60%
    14:00 +13°C° 0.3 mm 2 mps 752 mmHg 63%
    15:00 +13°C° 0.3 mm 2 mps 752 mmHg 66%
    16:00 +13°C° 0.3 mm 2 mps 752 mmHg 70%
    17:00 +10°C° 0.3 mm 2 mps 753 mmHg 75%
    18:00 +9°C° 0.3 mm 2 mps 753 mmHg 80%
    19:00 +7°C° 0.3 mm 2 mps 754 mmHg 86%
    20:00 +7°C° 0.2 mm 3 mps 754 mmHg 87%
    21:00 +7°C° 0.2 mm 3 mps 755 mmHg 87%
    22:00 +7°C° 0.2 mm 4 mps 755 mmHg 88%
    23:00 +7°C° 0.1 mm 5 mps 755 mmHg 88%
    Show more